Weather History for Canby, MN

Change the Weather History Date:

Wednesday, September 11, 2013

  Actual Average (KMML) Record (KMML)
Temperature  
Mean Temperature 72 °F -  
Max Temperature 88 °F 76 °F 96 °F (2012)
Min Temperature 58 °F 51 °F 36 °F (1964)
Cooling Degree Days 8    
Growing Degree Days 22 (Base 50)    
Moisture  
Dew Point 53 °F    
Average Humidity 53    
Maximum Humidity 82    
Minimum Humidity 23    
Precipitation  
Precipitation 0.00 in - - ()
Sea Level Pressure  
Sea Level Pressure 30.08 in    
Wind  
Wind Speed 7 mph (WNW)    
Max Wind Speed 20 mph    
Max Gust Speed 25 mph    
Visibility 10 miles    
Events      
Averages and records for this station are not official NWS values.
T = Trace of Precipitation, MM = Missing Value Source: NWS Daily Summary

Daily Weather History Graph

Daily Weather History Graph

Search for Another Location

Airport:

Trip Planner

Search our weather history database for the weather conditions in past years. The results will help you decide how hot, cold, wet, or windy it might be!

Date:

Astronomy

Sep. 11, 2013 Rise Set
Actual Time 6:59 AM CDT 7:42 PM CDT
Civil Twilight 6:29 AM CDT 8:12 PM CDT
Nautical Twilight 5:54 AM CDT 8:47 PM CDT
Astronomical Twilight 5:18 AM CDT 9:23 PM CDT
Moon 1:44 PM CDT (9/11) 11:23 PM CDT (9/11)
Length of Visible Light 13h 42m
Length of Day
12h 43m
Waxing Crescent, 39% of the Moon is Illuminated
Sep 11
Waxing Crescent
Sep 12
First Quarter
Sep 19
Full
Sep 26
Last Quarter
Oct 4
New

Hourly Weather History & Observations

Time (CDT) Temp. Dew Point Humidity Pressure Visibility Wind Dir Wind Speed Gust Speed Precip Events Conditions
12:14 AM 67.5 °F 59.0 °F 74% 30.03 in 10.0 mi SW 4.6 mph - N/A   Clear
12:33 AM 68.0 °F 58.5 °F 71% 30.03 in 10.0 mi SW 4.6 mph - N/A   Clear
12:54 AM 67.8 °F 58.3 °F 71% 30.03 in 10.0 mi SW 4.6 mph - N/A   Clear
1:14 AM 68.0 °F 58.3 °F 71% 30.03 in 10.0 mi SSW 5.8 mph - N/A   Clear
1:34 AM 67.3 °F 58.5 °F 73% 30.03 in 10.0 mi Calm Calm - N/A   Clear
1:53 AM 66.2 °F 58.6 °F 77% 30.03 in 10.0 mi Calm Calm - N/A   Clear
2:14 AM 64.6 °F 58.5 °F 80% 30.03 in 10.0 mi Calm Calm - N/A   Clear
2:33 AM 65.5 °F 58.3 °F 77% 30.03 in 10.0 mi WSW 4.6 mph - N/A   Clear
2:54 AM 66.2 °F 58.3 °F 76% 30.03 in 10.0 mi SW 6.9 mph - N/A   Clear
3:14 AM 66.2 °F 58.6 °F 77% 30.03 in 10.0 mi SW 6.9 mph - N/A   Clear
3:33 AM 65.7 °F 58.5 °F 78% 30.04 in 10.0 mi WSW 6.9 mph - N/A   Clear
3:54 AM 64.8 °F 58.3 °F 79% 30.04 in 10.0 mi WSW 5.8 mph - N/A   Clear
4:14 AM 63.9 °F 58.3 °F 82% 30.04 in 10.0 mi WSW 6.9 mph - N/A   Clear
4:34 AM 64.8 °F 58.5 °F 80% 30.05 in 10.0 mi WSW 8.1 mph - N/A   Clear
4:54 AM 64.4 °F 58.5 °F 81% 30.05 in 10.0 mi WSW 6.9 mph - N/A   Scattered Clouds
5:13 AM 63.9 °F 58.1 °F 81% 30.04 in 10.0 mi WSW 8.1 mph - N/A   Clear
5:34 AM 64.4 °F 57.6 °F 78% 30.05 in 10.0 mi WSW 11.5 mph - N/A   Clear
5:54 AM 64.4 °F 57.4 °F 78% 30.05 in 10.0 mi WSW 10.4 mph - N/A   Clear
6:13 AM 64.4 °F 57.6 °F 78% 30.05 in 10.0 mi WSW 8.1 mph - N/A   Clear
6:34 AM 64.4 °F 58.1 °F 80% 30.06 in 10.0 mi WSW 8.1 mph - N/A   Clear
6:54 AM 63.7 °F 57.7 °F 81% 30.06 in 10.0 mi WSW 5.8 mph - N/A   Clear
7:13 AM 63.5 °F 57.4 °F 80% 30.07 in 10.0 mi WSW 6.9 mph - N/A   Clear
7:34 AM 64.2 °F 57.6 °F 79% 30.08 in 10.0 mi West 6.9 mph - N/A   Clear
7:54 AM 65.7 °F 57.7 °F 76% 30.08 in 10.0 mi West 6.9 mph - N/A   Clear
8:13 AM 67.5 °F 57.7 °F 71% 30.09 in 10.0 mi West 5.8 mph - N/A   Clear
8:34 AM 69.1 °F 57.9 °F 68% 30.09 in 10.0 mi West 6.9 mph - N/A   Clear
8:54 AM 70.7 °F 57.6 °F 63% 30.09 in 10.0 mi West 9.2 mph - N/A   Clear
9:14 AM 72.0 °F 57.7 °F 61% 30.10 in 10.0 mi WNW 8.1 mph - N/A   Clear
9:34 AM 74.3 °F 57.6 °F 56% 30.09 in 10.0 mi NW 9.2 mph - N/A   Clear
9:53 AM 75.2 °F 57.2 °F 53% 30.10 in 10.0 mi NW 8.1 mph - N/A   Clear
10:14 AM 75.9 °F 57.6 °F 53% 30.10 in 10.0 mi West 10.4 mph - N/A   Clear
10:34 AM 77.5 °F 57.2 °F 49% 30.10 in 10.0 mi WNW 6.9 mph - N/A   Clear
10:54 AM 77.7 °F 57.4 °F 49% 30.10 in 10.0 mi NNW 4.6 mph - N/A   Clear
11:14 AM 79.5 °F 55.9 °F 44% 30.10 in 10.0 mi NNW 6.9 mph - N/A   Clear
11:34 AM 79.9 °F 53.2 °F 40% 30.11 in 10.0 mi WNW 6.9 mph - N/A   Clear
11:54 AM 81.3 °F 51.1 °F 35% 30.10 in 10.0 mi NNW 8.1 mph - N/A   Clear
12:14 PM 81.5 °F 49.3 °F 32% 30.10 in 10.0 mi NW 5.8 mph - N/A   Clear
12:34 PM 82.0 °F 49.6 °F 32% 30.10 in 10.0 mi North 5.8 mph - N/A   Clear
12:54 PM 82.9 °F 49.3 °F 31% 30.10 in 10.0 mi WNW 10.4 mph - N/A   Clear
1:14 PM 83.5 °F 49.3 °F 30% 30.10 in 10.0 mi Calm Calm - N/A   Clear
1:34 PM 84.2 °F 49.5 °F 30% 30.09 in 10.0 mi WSW 5.8 mph - N/A   Clear
1:54 PM 83.8 °F 49.3 °F 30% 30.09 in 10.0 mi Calm Calm - N/A   Clear
2:13 PM 85.5 °F 49.8 °F 29% 30.08 in 10.0 mi North 6.9 mph - N/A   Clear
2:34 PM 86.9 °F 48.6 °F 26% 30.08 in 10.0 mi WNW 16.1 mph 20.7 mph N/A   Clear
2:54 PM 87.4 °F 46.9 °F 24% 30.08 in 10.0 mi WNW 16.1 mph 24.2 mph N/A   Clear
3:13 PM 87.3 °F 47.3 °F 25% 30.07 in 10.0 mi WNW 18.4 mph 21.9 mph N/A   Clear
3:34 PM 87.8 °F 46.8 °F 24% 30.07 in 10.0 mi WNW 16.1 mph 25.3 mph N/A   Clear
3:54 PM 87.8 °F 45.9 °F 23% 30.07 in 10.0 mi West 19.6 mph 25.3 mph N/A   Scattered Clouds
4:13 PM 87.3 °F 44.8 °F 23% 30.07 in 10.0 mi NW 15.0 mph 19.6 mph N/A   Scattered Clouds
4:34 PM 86.9 °F 45.1 °F 23% 30.07 in 10.0 mi WNW 15.0 mph 23.0 mph N/A   Clear
4:53 PM 86.2 °F 45.3 °F 24% 30.06 in 10.0 mi NW 12.7 mph 19.6 mph N/A   Clear
5:14 PM 85.8 °F 46.4 °F 25% 30.07 in 10.0 mi NW 13.8 mph 20.7 mph N/A   Clear
5:34 PM 85.1 °F 46.6 °F 26% 30.06 in 10.0 mi NW 10.4 mph 19.6 mph N/A   Clear
5:53 PM 84.7 °F 48.6 °F 28% 30.07 in 10.0 mi NW 9.2 mph - N/A   Clear
6:14 PM 84.0 °F 49.8 °F 30% 30.06 in 10.0 mi NNW 10.4 mph 16.1 mph N/A   Scattered Clouds
6:33 PM 83.1 °F 50.2 °F 32% 30.06 in 10.0 mi NNW 6.9 mph - N/A   Mostly Cloudy
6:54 PM 79.3 °F 51.8 °F 38% 30.07 in 10.0 mi NNW 4.6 mph - N/A   Scattered Clouds
7:14 PM 78.3 °F 48.7 °F 35% 30.07 in 10.0 mi NNW 8.1 mph - N/A   Scattered Clouds
7:34 PM 77.4 °F 46.4 °F 33% 30.08 in 10.0 mi NNW 8.1 mph - N/A   Overcast
7:53 PM 76.1 °F 46.6 °F 35% 30.10 in 10.0 mi NNW 8.1 mph - N/A   Overcast
8:14 PM 75.2 °F 46.9 °F 37% 30.11 in 10.0 mi NNW 6.9 mph - N/A   Scattered Clouds
8:34 PM 73.6 °F 47.3 °F 39% 30.12 in 10.0 mi NNW 4.6 mph - N/A   Scattered Clouds
8:53 PM 72.1 °F 46.8 °F 40% 30.13 in 10.0 mi NNW 6.9 mph - N/A   Scattered Clouds
9:14 PM 70.7 °F 47.3 °F 43% 30.14 in 10.0 mi NW 5.8 mph - N/A   Scattered Clouds
9:34 PM 67.1 °F 49.1 °F 52% 30.15 in 10.0 mi NW 3.5 mph - N/A   Clear
9:53 PM 66.4 °F 48.6 °F 53% 30.16 in 10.0 mi NW 5.8 mph - N/A   Scattered Clouds
10:14 PM 67.1 °F 47.8 °F 50% 30.16 in 10.0 mi WNW 5.8 mph - N/A   Mostly Cloudy
10:34 PM 63.9 °F 48.9 °F 58% 30.17 in 10.0 mi NW 4.6 mph - N/A   Scattered Clouds
10:53 PM 61.5 °F 49.1 °F 64% 30.17 in 10.0 mi WNW 6.9 mph - N/A   Clear
11:14 PM 60.1 °F 49.1 °F 67% 30.18 in 10.0 mi WNW 6.9 mph - N/A   Clear
11:34 PM 58.5 °F 48.6 °F 70% 30.18 in 10.0 mi WNW 6.9 mph - N/A   Clear
11:54 PM 58.3 °F 48.4 °F 70% 30.18 in 10.0 mi WNW 6.9 mph - N/A   Clear